H1 CPF 2 NER 2024 4 21 9 112 01 glonass147 H2 2311401 9147 57517 2024 4 21 0 0 0 2024 4 24 23 45 0 900 1 1 0 0 0 1 H9 10 0 60421 0.00000 0 13319253.187 9453155.706 19628197.720 10 0 60421 900.00000 0 14277650.871 11546667.329 17743860.636 10 0 60421 1800.00000 0 15275952.679 13337391.389 15515961.142 10 0 60421 2700.00000 0 16257379.801 14796764.443 12987595.539 10 0 60421 3600.00000 0 17162459.048 15908837.806 10207676.932 10 0 60421 4500.00000 0 17931605.867 16670703.529 7230000.717 10 0 60421 5400.00000 0 18507732.062 17092385.492 4112214.941 10 0 60421 6300.00000 0 18838769.173 17196200.400 914714.370 10 0 60421 7200.00000 0 18880001.531 17015615.394 -2300521.237 10 0 60421 8100.00000 0 18596110.452 16593649.977 -5471122.734 10 0 60421 9000.00000 0 17962842.645 15980889.068 -8535538.330 10 0 60421 9900.00000 0 16968231.225 15233190.448 -11434228.081 10 0 60421 10800.00000 0 15613316.221 14409182.973 -14110822.823 10 0 60421 11700.00000 0 13912332.161 13567660.898 -16513224.723 10 0 60421 12600.00000 0 11892352.653 12764984.423 -18594627.525 10 0 60421 13500.00000 0 9592404.619 12052596.471 -20314436.103 10 0 60421 14400.00000 0 7062087.148 11474761.100 -21639066.803 10 0 60421 15300.00000 0 4359750.909 11066619.777 -22542612.289 10 0 60421 16200.00000 0 1550312.684 10852648.455 -23007357.273 10 0 60421 17100.00000 0 -1297204.928 10845581.562 -23024134.391 10 0 60421 18000.00000 0 -4112306.702 11045849.298 -22592512.556 10 0 60421 18900.00000 0 -6825721.474 11441552.897 -21720813.474 10 0 60421 19800.00000 0 -9372049.987 12008979.627 -20425955.357 10 0 60421 20700.00000 0 -11692253.334 12713636.286 -18733126.342 10 0 60421 21600.00000 0 -13735878.006 13511757.700 -16675293.659 10 0 60421 22500.00000 0 -15462924.494 14352226.358 -14292557.907 10 0 60421 23400.00000 0 -16845281.405 15178821.494 -11631365.192 10 0 60421 24300.00000 0 -17867665.462 15932701.714 -8743592.887 10 0 60421 25200.00000 0 -18528028.803 16555015.075 -5685527.555 10 0 60421 26100.00000 0 -18837417.703 16989525.010 -2516755.976 10 0 60421 27000.00000 0 -18819290.337 17185139.806 701007.905 10 0 60421 27900.00000 0 -18508324.254 17098237.585 3905135.970 10 0 60421 28800.00000 0 -17948766.005 16694687.663 7033313.942 10 0 60421 29700.00000 0 -17192394.617 15951482.419 10024759.425 10 0 60421 30600.00000 0 -16296186.835 14857910.622 12821405.499 10 0 60421 31500.00000 0 -15319784.181 13416222.954 15369026.427 10 0 60421 32400.00000 0 -14322869.731 11641762.103 17618283.713 10 0 60421 33300.00000 0 -13362565.628 9562552.403 19525672.767 10 0 60421 34200.00000 0 -12490960.790 7218366.680 21054352.771 10 0 60421 35100.00000 0 -11752872.075 4659309.532 22174845.011 10 0 60421 36000.00000 0 -11183931.823 1943976.057 22865587.664 10 0 60421 36900.00000 0 -10809080.617 -862737.764 23113337.879 10 0 60421 37800.00000 0 -10641526.917 -3692082.888 22913414.827 10 0 60421 38700.00000 0 -10682215.722 -6474062.973 22269780.233 10 0 60421 39600.00000 0 -10919827.334 -9140091.584 21194955.654 10 0 60421 40500.00000 0 -11331305.475 -11625592.573 19709778.524 10 0 60421 41400.00000 0 -11882892.283 -13872437.768 17843001.585 10 0 60421 42300.00000 0 -12531626.950 -15831122.720 15630742.996 10 0 60421 43200.00000 0 -13227245.632 -17462591.893 13115796.888 10 0 60421 44100.00000 0 -13914403.718 -18739638.829 10346816.582 10 0 60421 45000.00000 0 -14535128.014 -19647823.981 7377385.092 10 0 60421 45900.00000 0 -15031396.613 -20185872.594 4264989.633 10 0 60421 46800.00000 0 -15347738.565 -20365536.251 1069918.871 10 0 60421 47700.00000 0 -15433744.198 -20210923.779 -2145896.608 10 0 60421 48600.00000 0 -15246380.170 -19757329.250 -5320078.819 10 0 60421 49500.00000 0 -14752011.071 -19049605.822 -8391009.114 10 0 60421 50400.00000 0 -13928041.213 -18140153.236 -11299023.793 10 0 60421 51300.00000 0 -12764105.847 -17086603.233 -13987575.256 10 0 60421 52200.00000 0 -11262759.626 -15949299.999 -16404335.838 10 0 60421 53100.00000 0 -9439631.145 -14788681.650 -18502222.357 10 0 60421 54000.00000 0 -7323034.661 -13662673.177 -20240320.900 10 0 60421 54900.00000 0 -4953052.910 -12624200.970 -21584693.257 10 0 60421 55800.00000 0 -2380127.294 -11718934.171 -22509048.594 10 0 60421 56700.00000 0 336787.499 -10983348.619 -22995266.635 10 0 60421 57600.00000 0 3132428.896 -10443195.674 -23033761.447 10 0 60421 58500.00000 0 5937700.847 -10112441.157 -22623678.043 10 0 60421 59400.00000 0 8682314.701 -9992719.758 -21772917.285 10 0 60421 60300.00000 0 11297486.713 -10073328.406 -20497987.946 10 0 60421 61200.00000 0 13718579.578 -10331759.139 -18823688.302 10 0 60421 62100.00000 0 15887577.570 -10734748.979 -16782623.059 10 0 60421 63000.00000 0 17755291.625 -11239802.118 -14414564.867 10 0 60421 63900.00000 0 19283201.979 -11797119.407 -11765672.993 10 0 60421 64800.00000 0 20444861.306 -12351852.603 -8887584.780 10 0 60421 65700.00000 0 21226799.933 -12846586.748 -5836398.318 10 0 60421 66600.00000 0 21628895.966 -13223944.249 -2671567.182 10 0 60421 67500.00000 0 21664196.038 -13429199.025 545270.056 10 0 60421 68400.00000 0 21358195.861 -13412788.747 3751501.437 10 0 60421 69300.00000 0 20747612.792 -13132617.784 6884769.446 10 0 60421 70200.00000 0 19878704.179 -12556052.690 9884190.082 10 0 60421 71100.00000 0 18805204.305 -11661525.481 12691538.660 10 0 60421 72000.00000 0 17585968.593 -10439676.967 15252378.831 10 0 60421 72900.00000 0 16282425.571 -8893992.146 17517112.979 10 0 60421 73800.00000 0 14955944.552 -7040901.248 19441934.133 10 0 60421 74700.00000 0 13665229.870 -4909342.572 20989661.871 10 0 60421 75600.00000 0 12463850.558 -2539805.622 22130447.336 10 0 60421 76500.00000 0 11398008.115 17105.523 22842335.233 10 0 60421 77400.00000 0 10504634.446 2702529.038 23111673.474 10 0 60421 78300.00000 0 9809897.910 5451545.903 22933364.052 10 0 60421 79200.00000 0 9328178.268 8195633.894 22310951.474 10 0 60421 80100.00000 0 9061551.778 10865274.610 21256547.928 10 0 60421 81000.00000 0 8999806.650 13392607.155 19790597.042 10 0 60421 81900.00000 0 9120987.310 15714020.261 17941480.738 10 0 60421 82800.00000 0 9392444.184 17772577.106 15744976.342 10 0 60421 83700.00000 0 9772345.011 19520173.825 13243573.600 10 0 60421 84600.00000 0 10211584.615 20919343.401 10485663.696 10 0 60421 85500.00000 0 10656013.529 21944630.833 7524614.791 10 0 60422 0.00000 0 11048892.431 22583482.867 4417750.993 10 0 60422 900.00000 0 11333469.899 22836615.643 1225251.728 10 0 60422 1800.00000 0 11455574.780 22717843.951 -1991003.893 10 0 60422 2700.00000 0 11366114.639 22253379.985 -5168631.532 10 0 60422 3600.00000 0 11023373.956 21480629.469 -8245948.022 10 0 60422 4500.00000 0 10395014.483 20446535.400 -11163168.046 10 0 60422 5400.00000 0 9459691.974 19205538.280 -13863567.468 10 0 60422 6300.00000 0 8208219.342 17817238.024 -16294590.443 10 0 60422 7200.00000 0 6644225.100 16343855.480 -18408878.263 10 0 60422 8100.00000 0 4784277.026 14847600.158 -20165199.425 10 0 60422 9000.00000 0 2657463.386 13388054.908 -21529262.154 10 0 60422 9900.00000 0 304446.914 12019687.778 -22474392.943 10 0 60422 10800.00000 0 -2223971.002 10789596.063 -22982067.156 10 0 60422 11700.00000 0 -4868717.699 9735577.886 -23042280.716 10 0 60422 12600.00000 0 -7564671.577 8884612.917 -22653754.895 10 0 60422 13500.00000 0 -10243147.533 8251816.564 -21823969.544 10 0 60422 14400.00000 0 -12834542.307 7839911.944 -20569023.482 10 0 60422 15300.00000 0 -15271029.390 7639241.948 -18913324.223 10 0 60422 16200.00000 0 -17489190.815 7628320.701 -16889112.701 10 0 60422 17100.00000 0 -19432475.495 7774900.628 -14535832.064 10 0 60422 18000.00000 0 -21053380.897 8037509.271 -11899352.953 10 0 60422 18900.00000 0 -22315266.452 8367389.736 -9031070.742 10 0 60422 19800.00000 0 -23193722.697 8710761.343 -5986893.021 10 0 60422 20700.00000 0 -23677439.033 9011303.211 -2826138.069 10 0 60422 21600.00000 0 -23768534.453 9212754.048 389633.042 10 0 60422 22500.00000 0 -23482338.553 9261516.467 3597826.671 10 0 60422 23400.00000 0 -22846633.618 9109154.265 6736044.279 10 0 60422 24300.00000 0 -21900391.505 8714675.877 9743302.525 10 0 60422 25200.00000 0 -20692060.371 8046506.795 12561221.265 10 0 60422 26100.00000 0 -19277475.118 7084067.288 15135155.852 10 0 60422 27000.00000 0 -17717480.875 5818888.903 17415251.816 10 0 60422 27900.00000 0 -16075370.353 4255222.926 19357401.963 10 0 60422 28800.00000 0 -14414243.052 2410115.577 20924088.238 10 0 60422 29700.00000 0 -12794396.810 312947.029 22085093.370 10 0 60422 30600.00000 0 -11270860.081 -1995546.393 22818070.016 10 0 60422 31500.00000 0 -9891166.864 -4464726.237 23108957.943 10 0 60422 32400.00000 0 -8693465.549 -7035922.148 22952242.698 10 0 60422 33300.00000 0 -7705038.772 -9644641.513 22351051.945 10 0 60422 34200.00000 0 -6941294.204 -12223027.950 21317088.506 10 0 60422 35100.00000 0 -6405266.660 -14702468.178 19870401.847 10 0 60422 36000.00000 0 -6087650.946 -17016240.787 18039002.357 10 0 60422 36900.00000 0 -5967363.048 -19102098.678 15858325.483 10 0 60422 37800.00000 0 -6012605.630 -20904679.483 13370555.216 10 0 60422 38700.00000 0 -6182393.067 -22377645.184 10623818.962 10 0 60422 39600.00000 0 -6428472.211 -23485462.803 7671268.149 10 0 60422 40500.00000 0 -6697558.621 -24204752.602 4570061.137 10 0 60422 41400.00000 0 -6933794.643 -24525147.678 1380266.986 10 0 60422 42300.00000 0 -7081326.192 -24449628.820 -1836289.600 10 0 60422 43200.00000 0 -7086889.764 -23994320.085 -5017220.455 10 0 60422 44100.00000 0 -6902300.304 -23187752.900 -8100780.552 10 0 60422 45000.00000 0 -6486734.344 -22069628.658 -11027065.733 10 0 60422 45900.00000 0 -5808710.927 -20689130.862 -13739178.181 10 0 60422 46800.00000 0 -4847685.230 -19102856.852 -16184336.745 10 0 60422 47700.00000 0 -3595185.771 -17372455.288 -18314910.004 10 0 60422 48600.00000 0 -2055445.072 -15562068.191 -20089351.499 10 0 60422 49500.00000 0 -245494.841 -13735684.627 -21473018.271 10 0 60422 50400.00000 0 1805280.738 -11954517.167 -22438856.147 10 0 60422 51300.00000 0 4056117.191 -10274511.358 -22967937.733 10 0 60422 52200.00000 0 6456328.770 -8744092.990 -23049841.945 10 0 60422 53100.00000 0 8947194.902 -7402248.040 -22682866.991 10 0 60422 54000.00000 0 11464196.451 -6277016.183 -21874071.943 10 0 60422 54900.00000 0 13939509.123 -5384461.300 -20639145.462 10 0 60422 55800.00000 0 16304650.081 -4728162.226 -19002103.671 10 0 60422 56700.00000 0 18493167.079 -4299244.869 -16994822.663 10 0 60422 57600.00000 0 20443257.298 -4076953.719 -14656414.564 10 0 60422 58500.00000 0 22100205.684 -4029737.729 -12032459.401 10 0 60422 59400.00000 0 23418540.182 -4116803.441 -9174108.116 10 0 60422 60300.00000 0 24363813.094 -4290068.205 -6137074.901 10 0 60422 61200.00000 0 24913933.728 -4496429.146 -2980539.473 10 0 60422 62100.00000 0 25059996.675 -4680250.015 234018.121 10 0 60422 63000.00000 0 24806571.646 -4785958.879 3444026.224 10 0 60422 63900.00000 0 24171443.832 -4760645.029 6587048.919 10 0 60422 64800.00000 0 23184817.209 -4556543.865 9602007.036 10 0 60422 65700.00000 0 21888015.937 -4133303.676 12430368.226 10 0 60422 66600.00000 0 20331740.137 -3459937.954 15017282.456 10 0 60422 67500.00000 0 18573950.794 -2516380.644 17312640.927 10 0 60422 68400.00000 0 16677473.675 -1294578.904 19272038.321 10 0 60422 69300.00000 0 14707423.307 200922.287 20857620.625 10 0 60422 70200.00000 0 12728554.904 1952927.908 22038803.386 10 0 60422 71100.00000 0 10802654.323 3932075.048 22792848.005 10 0 60422 72000.00000 0 8986073.955 6097829.265 23105286.454 10 0 60422 72900.00000 0 7327515.697 8399953.955 22970187.718 10 0 60422 73800.00000 0 5866151.523 10780392.253 22390262.043 10 0 60422 74700.00000 0 4630157.973 13175484.209 21376801.863 10 0 60422 75600.00000 0 3635723.611 15518428.463 19949461.029 10 0 60422 76500.00000 0 2886569.098 17741887.714 18135876.562 10 0 60422 77400.00000 0 2373998.455 19780631.306 15971139.856 10 0 60422 78300.00000 0 2077478.385 21574106.648 13497126.720 10 0 60422 79200.00000 0 1965720.807 23068833.822 10761698.127 10 0 60422 80100.00000 0 1998223.065 24220524.648 7817785.962 10 0 60422 81000.00000 0 2127201.278 24995838.465 4722380.215 10 0 60422 81900.00000 0 2299835.831 25373701.491 1535436.066 10 0 60422 82800.00000 0 2460734.824 25346134.357 -1681278.846 10 0 60422 83700.00000 0 2554511.825 24918552.572 -4865375.357 10 0 60422 84600.00000 0 2528369.179 24109526.418 -7955049.246 10 0 60422 85500.00000 0 2334577.418 22950009.248 -10890279.931 10 0 60423 0.00000 0 1932745.379 21482065.555 -13613997.821 10 0 60423 900.00000 0 1291783.687 19757150.193 -16073198.769 10 0 60423 1800.00000 0 391477.752 17834011.989 -18219979.914 10 0 60423 2700.00000 0 -776398.753 15776306.257 -20012481.061 10 0 60423 3600.00000 0 -2207478.538 13650017.655 -21415709.028 10 0 60423 4500.00000 0 -3884731.458 11520800.375 -22402229.685 10 0 60423 5400.00000 0 -5778936.571 9451347.120 -22952713.324 10 0 60423 6300.00000 0 -7849677.864 7498897.150 -23056322.033 10 0 60423 7200.00000 0 -10046823.724 5712987.978 -22710930.812 10 0 60423 8100.00000 0 -12312429.672 4133545.070 -21923177.461 10 0 60423 9000.00000 0 -14582985.707 2789389.722 -20708339.601 10 0 60423 9900.00000 0 -16791914.690 1697227.640 -19090040.693 10 0 60423 10800.00000 0 -18872217.268 861160.360 -17099790.367 10 0 60423 11700.00000 0 -20759152.269 272739.422 -14776367.800 10 0 60423 12600.00000 0 -22392839.657 -88439.950 -12165060.258 10 0 60423 13500.00000 0 -23720676.216 -253632.004 -9316771.968 10 0 60423 14400.00000 0 -24699461.930 -263368.771 -6287021.362 10 0 60423 15300.00000 0 -25297147.288 -165491.785 -3134847.218 10 0 60423 16200.00000 0 -25494127.927 -12872.442 78353.829 10 0 60423 17100.00000 0 -25284032.460 139080.574 3290034.474 10 0 60423 18000.00000 0 -24673971.017 235019.406 6437723.791 10 0 60423 18900.00000 0 -23684235.135 222249.160 9460249.130 10 0 60423 19800.00000 0 -22347462.941 53203.128 12298928.246 10 0 60423 20700.00000 0 -20707306.197 -312304.312 14898707.954 10 0 60423 21600.00000 0 -18816656.561 -905142.650 17209227.213 10 0 60423 22500.00000 0 -16735506.586 -1745329.628 19185784.468 10 0 60423 23400.00000 0 -14528535.806 -2840959.445 20790191.353 10 0 60423 24300.00000 0 -12262523.052 -4187639.384 21991497.517 10 0 60423 25200.00000 0 -10003692.663 -5768458.157 22766574.017 10 0 60423 26100.00000 0 -7815104.350 -7554487.014 23100545.566 10 0 60423 27000.00000 0 -5754193.953 -9505792.783 22987064.756 10 0 60423 27900.00000 0 -3870565.609 -11572920.994 22428424.233 10 0 60423 28800.00000 0 -2204125.140 -13698788.043 21435505.540 10 0 60423 29700.00000 0 -783630.205 -15820904.772 20027566.113 10 0 60423 30600.00000 0 374284.470 -17873840.290 18231868.537 10 0 60423 31500.00000 0 1265567.851 -19791824.991 16083158.826 10 0 60423 32400.00000 0 1898681.537 -21511385.906 13623003.035 10 0 60423 33300.00000 0 2294000.794 -22973905.959 10898993.927 10 0 60423 34200.00000 0 2482713.275 -24128001.431 7963841.888 10 0 60423 35100.00000 0 2505261.780 -24931619.091 4874366.425 10 0 60423 36000.00000 0 2409396.364 -25353765.581 1690406.639 10 0 60423 36900.00000 0 2247917.489 -25375796.448 -1526329.183 10 0 60423 37800.00000 0 2076205.079 -24992210.225 -4713453.220 10 0 60423 38700.00000 0 1949637.584 -24210913.233 -7809104.435 10 0 60423 39600.00000 0 1921010.146 -23052942.758 -10753148.249 10 0 60423 40500.00000 0 2038061.376 -21551658.790 -13488346.197 10 0 60423 41400.00000 0 2341214.074 -19751436.810 -15961472.581 10 0 60423 42300.00000 0 2861626.536 -17705915.104 -18124355.937 10 0 60423 43200.00000 0 3619638.307 -15475868.918 -19934824.530 10 0 60423 44100.00000 0 4623677.812 -13126799.566 -21357536.905 10 0 60423 45000.00000 0 5869679.991 -10726338.812 -22364680.629 10 0 60423 45900.00000 0 7341040.595 -8341576.743 -22936524.980 10 0 60423 46800.00000 0 9009111.169 -6036424.709 -23061816.131 10 0 60423 47700.00000 0 10834215.830 -3869123.657 -22738006.413 10 0 60423 48600.00000 0 12767148.728 -1890002.132 -21971312.504 10 0 60423 49500.00000 0 14751090.579 -139577.790 -20776600.782 10 0 60423 50400.00000 0 16723864.560 1352918.096 -19177101.480 10 0 60423 51300.00000 0 18620437.191 2570531.606 -17203956.826 10 0 60423 52200.00000 0 20375559.113 3509051.560 -14895611.727 10 0 60423 53100.00000 0 21926434.329 4176930.668 -12297058.953 10 0 60423 54000.00000 0 23215305.078 4594667.013 -9458953.864 10 0 60423 54900.00000 0 24191842.858 4793673.535 -6436616.589 10 0 60423 55800.00000 0 24815244.316 4814685.090 -3288942.069 10 0 60423 56700.00000 0 25055943.314 4705772.465 -77240.381 10 0 60423 57600.00000 0 24896866.951 4520049.425 3135968.828 10 0 60423 58500.00000 0 24334182.902 4313171.863 6288182.960 10 0 60423 59400.00000 0 23377507.269 4140736.677 9318139.138 10 0 60423 60300.00000 0 22049565.138 4055691.873 12167008.300 10 0 60423 61200.00000 0 20385319.300 4105868.439 14779536.938 10 0 60423 62100.00000 0 18430604.900 4331738.793 17105114.312 10 0 60423 63000.00000 0 16240328.348 4764496.494 19098744.838 10 0 60423 63900.00000 0 13876306.652 5424537.853 20721907.670 10 0 60423 64800.00000 0 11404837.820 6320408.816 21943288.064 10 0 60423 65700.00000 0 8894103.471 7448260.765 22739367.864 10 0 60423 66600.00000 0 6411511.159 8791837.530 23094865.228 10 0 60423 67500.00000 0 4021085.688 10322993.890 23003016.614 10 0 60423 68400.00000 0 1781016.147 12002723.950 22465696.843 10 0 60423 69300.00000 0 -258541.398 13782656.862 21493375.839 10 0 60423 70200.00000 0 -2057316.448 15606958.333 20104913.393 10 0 60423 71100.00000 0 -3586356.950 17414559.765 18327195.951 10 0 60423 72000.00000 0 -4828984.835 19141623.399 16194622.038 10 0 60423 72900.00000 0 -5781236.053 20724142.090 13748445.494 10 0 60423 73800.00000 0 -6451767.970 22100566.570 11035988.153 10 0 60423 74700.00000 0 -6861238.805 23214351.545 8109735.997 10 0 60423 75600.00000 0 -7041185.527 24016314.996 5026335.043 10 0 60423 76500.00000 0 -7032447.356 24466712.278 1845505.243 10 0 60423 77400.00000 0 -6883201.001 24536937.984 -1371107.508 10 0 60423 78300.00000 0 -6646690.116 24210783.629 -4561119.699 10 0 60423 79200.00000 0 -6378744.484 23485197.378 -7662616.303 10 0 60423 80100.00000 0 -6135193.553 22370512.536 -10615351.351 10 0 60423 81000.00000 0 -5969283.752 20890133.674 -13361919.616 10 0 60423 81900.00000 0 -5929209.194 19079691.806 -15848876.375 10 0 60423 82800.00000 0 -6055860.922 16985702.435 -18027783.021 10 0 60423 83700.00000 0 -6380890.980 14663781.142 -19856157.666 10 0 60423 84600.00000 0 -6925174.486 12176490.123 -21298311.657 10 0 60423 85500.00000 0 -7697736.357 9590904.782 -22326055.026 10 0 60424 0.00000 0 -8695189.654 6976001.599 -22919256.470 10 0 60424 900.00000 0 -9901711.690 4399974.586 -23066246.504 10 0 60424 1800.00000 0 -11289559.286 1927595.726 -22764054.510 10 0 60424 2700.00000 0 -12820104.846 -382275.061 -22018475.473 10 0 60424 3600.00000 0 -14445349.638 -2478922.890 -20843963.546 10 0 60424 4500.00000 0 -16109851.987 -4321661.864 -19263354.359 10 0 60424 5400.00000 0 -17752989.627 -5881291.123 -17307420.986 10 0 60424 6300.00000 0 -19311461.039 -7141062.409 -15014271.991 10 0 60424 7200.00000 0 -20721920.095 -8097119.253 -12428603.326 10 0 60424 8100.00000 0 -21923632.417 -8758390.440 -9600818.996 10 0 60424 9000.00000 0 -22861040.677 -9145943.698 -6586038.241 10 0 60424 9900.00000 0 -23486129.870 -9291828.631 -3443009.545 10 0 60424 10800.00000 0 -23760492.095 -9237459.773 -232953.791 10 0 60424 11700.00000 0 -23657003.300 -9031610.251 2981639.642 10 0 60424 12600.00000 0 -23161041.155 -8728103.022 6138239.064 10 0 60424 13500.00000 0 -22271192.964 -8383299.356 9175493.902 10 0 60424 14400.00000 0 -20999424.389 -8053492.406 12034430.722 10 0 60424 15300.00000 0 -19370702.709 -7792317.360 14659598.002 10 0 60424 16200.00000 0 -17422091.425 -7648288.282 17000137.403 10 0 60424 17100.00000 0 -15201355.084 -7662565.868 19010761.149 10 0 60424 18000.00000 0 -12765133.481 -7867049.953 20652617.412 10 0 60424 18900.00000 0 -10176761.902 -8282876.511 21894028.168 10 0 60424 19800.00000 0 -7503828.232 -8919381.511 22711086.748 10 0 60424 20700.00000 0 -4815568.081 -9773574.344 23088105.044 10 0 60424 21600.00000 0 -2180205.120 -10830142.192 23017903.274 10 0 60424 22500.00000 0 337654.467 -12061984.793 22501937.968 10 0 60424 23400.00000 0 2679467.145 -13431257.230 21550266.647 10 0 60424 24300.00000 0 4794937.433 -14890877.530 20181350.399 10 0 60424 25200.00000 0 6643854.987 -16386436.931 18421698.215 10 0 60424 26100.00000 0 8197509.013 -17858434.041 16305359.569 10 0 60424 27000.00000 0 9439622.979 -19244740.829 13873274.301 10 0 60424 27900.00000 0 10366772.092 -20483198.630 11172491.304 10 0 60424 28800.00000 0 10988267.119 -21514236.683 8255269.935 10 0 60424 29700.00000 0 11325510.033 -22283404.447 5178080.337 10 0 60424 30600.00000 0 11410848.712 -22743712.028 2000520.806 10 0 60424 31500.00000 0 11285978.740 -22857680.570 -1215827.725 10 0 60424 32400.00000 0 10999959.298 -22599016.026 -4408588.625 10 0 60424 33300.00000 0 10606926.441 -21953835.094 -7515795.404 10 0 60424 34200.00000 0 10163599.968 -20921390.400 -10477093.151 10 0 60424 35100.00000 0 9726689.078 -19514262.823 -13234912.213 10 0 60424 36000.00000 0 9350306.546 -17758010.948 -15735591.042 10 0 60424 36900.00000 0 9083501.162 -15690290.478 -17930425.917 10 0 60424 37800.00000 0 8968013.418 -13359478.587 -19776626.606 10 0 60424 38700.00000 0 9036350.314 -10822859.179 -21238158.793 10 0 60424 39600.00000 0 9310261.861 -8144443.529 -22286456.197 10 0 60424 40500.00000 0 9799685.033 -5392516.316 -22900987.871 10 0 60424 41400.00000 0 10502201.260 -2637008.717 -23069668.953 10 0 60424 42300.00000 0 11403031.868 53192.199 -22789106.154 10 0 60424 43200.00000 0 12475573.020 2612885.751 -22064672.543 10 0 60424 44100.00000 0 13682448.815 4983041.353 -20910409.501 10 0 60424 45000.00000 0 14977038.968 7113019.935 -19348757.191 10 0 60424 45900.00000 0 16305417.187 8962440.266 -17410118.363 10 0 60424 46800.00000 0 17608618.568 10502612.363 -15132263.764 10 0 60424 47700.00000 0 18825140.071 11717478.348 -12559590.733 10 0 60424 48600.00000 0 19893567.923 12604022.177 -9742249.806 10 0 60424 49500.00000 0 20755220.182 13172132.210 -6735156.912 10 0 60424 50400.00000 0 21356691.908 13443924.003 -3596911.392 10 0 60424 51300.00000 0 21652194.513 13452553.798 -388642.056 10 0 60424 52200.00000 0 21605589.775 13240574.900 2827194.986 10 0 60424 53100.00000 0 21192032.145 12857908.552 5988041.962 10 0 60424 54000.00000 0 20399149.912 12359517.181 9032463.538 10 0 60424 54900.00000 0 19227715.674 11802880.198 11901344.686 10 0 60424 55800.00000 0 17691778.344 11245380.477 14539038.443 10 0 60424 56700.00000 0 15818251.868 10741712.842 16894441.199 10 0 60424 57600.00000 0 13645978.624 10341424.321 18921975.049 10 0 60424 58500.00000 0 11224307.374 10086689.716 20582458.962 10 0 60424 59400.00000 0 8611245.594 10010415.539 21843853.115 10 0 60424 60300.00000 0 5871263.226 10134751.140 22681863.472 10 0 60424 61200.00000 0 3072838.868 10470068.427 23080396.437 10 0 60424 62100.00000 0 285849.465 11014451.978 23031856.349 10 0 60424 63000.00000 0 -2421089.546 11753719.996 22537281.342 10 0 60424 63900.00000 0 -4983225.009 12661974.743 21606315.930 10 0 60424 64800.00000 0 -7342101.891 13702659.289 20257021.376 10 0 60424 65700.00000 0 -9447735.282 14830076.696 18515527.596 10 0 60424 66600.00000 0 -11260430.397 15991308.765 16415532.944 10 0 60424 67500.00000 0 -12752176.802 17128455.050 13997660.814 10 0 60424 68400.00000 0 -13907560.366 18181099.501 11308684.421 10 0 60424 69300.00000 0 -14724156.063 19088902.498 8400633.594 10 0 60424 70200.00000 0 -15212385.915 19794210.485 5329799.586 10 0 60424 71100.00000 0 -15394848.392 20244574.296 2155656.006 10 0 60424 72000.00000 0 -15305147.379 20395070.543 -1060284.167 10 0 60424 72900.00000 0 -14986269.697 20210328.204 -4255654.104 10 0 60424 73800.00000 0 -14488579.091 19666174.356 -7368438.646 10 0 60424 74700.00000 0 -13867510.859 18750828.566 -10338176.564 10 0 60424 75600.00000 0 -13181064.093 17465594.047 -13107136.188 10 0 60424 76500.00000 0 -12487197.270 15825014.544 -15621441.277 10 0 60424 77400.00000 0 -11841237.307 13856488.278 -17832124.820 10 0 60424 78300.00000 0 -11293411.902 11599352.971 -19696089.729 10 0 60424 79200.00000 0 -10886609.983 9103478.275 -21176957.172 10 0 60424 80100.00000 0 -10654465.736 6427422.719 -22245785.348 10 0 60424 81000.00000 0 -10619848.108 3636230.720 -22881644.079 10 0 60424 81900.00000 0 -10793820.700 798960.527 -23072033.321 10 0 60424 82800.00000 0 -11175117.092 -2013954.504 -22813136.769 10 0 60424 83700.00000 0 -11750154.868 -4733401.647 -22109904.919 10 0 60424 84600.00000 0 -12493588.655 -7294229.317 -20975965.332 10 0 60424 85500.00000 0 -13369379.568 -9637722.127 -19433361.271 99